STARLINK-11300, 61243

Orbit data source: Space-Track

STARLINK-11300, 61243 is a payload satellite owned by SpaceX/Seattle (US) in LEO that was launched on Wed, 25 Sep 2024 UTC via an FALCON 9 launch vehicle from the Air Force Western Test Range (AFWTR). Payload-class satellites include a variety of spacecraft equipped with specific instruments for various scientific and technological missions. These include communications satellites like Starlink; space stations such as the ISS; scientific satellites like the Hubble; Earth observation satellites from companies like Planet Labs, Umbra, and HawkEye 360; GPS; miniature CubeSats for education and research; and military/defense satellites.

Loading next visibility...
Identifier
61243, 2024-175A
Orbit
LEO
Country
Flag of USUS
Related business
Manufacturer
SpaceX/Seattle
Mission
Operational Commercial Communications
Bus & Motor
STARLINK V2MD, Unknown motor
Mass
960 kg wet, ~910 kg dry
Launch date (UTC)
2024-09-25 (1 year ago)
Launch vehicle
FALCON 9
Launch site
Air Force Western Test Range (AFWTR)
Object type
Payload
Rocket body
Debris
Shape & HBR
Box + 2 Pan, 18.1 m
Radar Cross Section
36.964 m², Large (>1 m²)

Expand to show TLE details & history
Last TLE update: 20 hours ago

TLE from 20 hours ago
0 STARLINK-11300
1 61243U 24175A   25305.31634845 -.00000716  00000-0 -10509-5 0  9990
2 61243  53.1573 329.1271 0001396  68.5389 291.5778 15.69707633 63202
Epoch: 2025-11-01T07:35Z
TLE epoch observation values (Epoch: 2025-11-01T07:35:32.506Z)
Latitude
0.00003°
Longitude
174.3935°
Altitude
360.302 km
Speed
7.695 km/s
True Right ascension
21h 56m 30s
True Declination
0° 00' 00"
Sunlit
Object was in full shadow at epoch
Visualization orbit readout
Latitude
Unknown
Longitude
Unknown
Altitude
Unknown
Speed
Unknown
Apparent Right ascension
Unknown
Apparent Declination
Unknown
Sunlit
N/A
Visualization observer readout
Local Sidereal Time
23:49:18
Azimuth
Unknown
Elevation
Unknown
Doppler factor
Unknown
Orbital elements
Apogee altitude
360.935 km
Perigee altitude
359.054 km
Semi-major axis
6,738.132 km
Eccentricity
0.00014
Inclination
53.1573°
RAAN
329.1271°
Arg. of periapsis
68.5389°
True anomaly
291.56292°
Mean anomaly
291.5778°
Eccentric anomaly
291.57036°
Mean motion
3.92404 °/min
Orbital period
91.74 mins
BSTAR
-0.0000010509
Loading maneuver chart data...
Computing Atmospheric mass density...
Loading historical data...
Loading historical data...
Loading historical data...
Loading historical data...
Loading historical data...
Loading historical data...
Loading historical data...

Documentation

Showing up to 5 results
|